Tracking 35331 objects as of 16-Sep-2026
HD Live streaming from Space Station
objects crossing your sky now

NUSAT 1 DEB


NUSAT 1 DEB is no longer on orbit


NORAD ID: 43427
Int'l Code: 2016-033E
Launch date: May 30, 2016
Source: Argentina (ARGN)
Launch site: Taiyaun Space Center, China (TSC)
Decay date: 2024-04-29

Note: This is SATELLITE DEBRIS
Your satellite tracking list
Your tracking list is empty




NASA's NSSDC Master Catalog

Two Line Element Set (TLE):
1 43427U 16033E   24113.82383959  .10580850  26104-5  65739-2 0  9998
2 43427  97.5580  68.7815 0003275 163.3471 196.7925 16.17944899417248
Source of the keplerian elements: AFSPC